Wind_Speed
5 4 3 5 6 7 8 9 8 8 9 9 5 5 9 11 9 9 7 9 14 9 6 8 9 12 15 16 17 16 15 14 14 13 13 13 12 12 13 12 13 12 12 16 21 24 27 28 29 29 29 30 30 30 31 32 31 32 31 31 31 29 28 28 27 26 25 24 21 19 18 17 16 14 13 13 13 13 11 10 12 12 11 12 12 10
4 6 7 8 9 9 8 8 7 6 6 6 5 3 4 7 8 8 7 9 11 6 4 5 7 12 15 16 15 14 16 15 15 16 15 15 14 12 13 15 14 11 10 12 16 20 25 26 26 28 29 30 29 29 31 32 31 31 30 30 30 29 28 28 27 27 26 25 23 20 19 19 18 17 16 15 13 12 10 9 10 9 7 9 10 10
4 6 9 10 8 7 5 5 6 5 5 3 3 4 3 4 1 2 4 9 10 4 3 6 7 8 10 13 14 15 17 15 15 17 16 16 15 12 13 14 14 11 9 10 12 17 22 24 25 27 28 30 31 30 31 32 31 30 30 30 29 28 28 28 27 26 25 24 22 20 18 16 16 15 14 12 9 8 8 8 7 7 7 8 11 12
5 6 9 8 6 7 5 5 7 4 3 3 3 4 4 4 3 2 5 9 8 2 3 5 3 1 4 7 9 13 14 11 12 15 14 14 15 16 16 15 14 13 12 12 13 14 19 23 24 26 27 28 30 30 30 31 31 31 31 30 29 28 28 28 27 26 23 21 21 20 17 14 12 11 9 8 7 6 6 7 7 8 9 10 11 10
5 6 5 7 7 8 6 5 8 5 2 3 5 6 3 5 7 4 4 7 4 3 5 8 4 2 4 7 9 10 10 9 9 11 11 12 14 14 14 13 14 14 14 14 14 14 16 21 24 27 28 28 28 29 31 32 32 32 32 31 30 29 29 28 27 25 23 22 21 19 16 13 11 9 8 7 8 7 7 8 8 9 10 11 10 10
7 7 5 8 7 7 7 6 7 7 4 3 4 8 8 8 7 7 11 10 4 2 4 8 3 5 4 8 10 8 9 11 8 10 13 13 12 11 10 12 13 13 13 13 14 14 15 19 23 26 27 27 28 30 32 34 34 33 32 31 31 30 30 29 27 25 25 24 22 20 18 15 12 11 11 10 10 10 10 10 10 10 12 12 11 11
6 6 5 7 8 8 7 6 6 8 6 3 6 8 10 9 7 11 15 11 7 6 7 9 6 4 4 8 11 9 10 13 9 11 15 13 12 12 11 12 12 12 12 12 13 14 15 19 21 23 26 28 30 32 33 33 34 34 32 31 31 31 31 29 27 26 26 25 24 23 21 19 17 14 13 12 11 11 12 12 12 12 13 12 11 11
6 8 7 6 6 7 6 5 7 10 7 4 5 7 8 8 7 12 15 11 7 3 4 7 4 2 4 8 11 10 9 12 12 13 15 14 13 14 13 14 13 14 13 12 13 14 16 19 22 24 28 30 32 32 32 32 34 34 32 31 31 31 31 29 28 28 27 26 25 23 21 20 18 15 14 12 11 12 13 14 13 13 13 12 11 10
5 9 9 7 6 5 5 6 8 11 6 7 6 7 7 8 8 10 12 9 6 5 4 6 4 3 4 5 6 10 9 12 16 17 17 16 16 16 15 15 15 15 15 14 15 16 17 21 26 29 30 32 33 32 32 33 34 34 32 31 31 31 30 28 27 27 26 26 24 22 20 19 17 14 13 13 14 14 15 15 15 14 14 12 10 9
3 8 9 8 6 5 5 6 8 11 7 6 5 5 2 2 4 7 8 5 4 5 7 10 9 5 5 3 6 8 9 13 16 17 16 16 17 16 16 17 16 14 13 14 15 16 19 25 30 30 31 31 32 33 34 34 33 33 32 31 31 31 30 28 27 27 26 25 24 21 19 17 15 14 15 16 17 17 16 16 16 15 14 12 9 8
4 3 5 6 5 6 6 6 7 11 10 3 3 3 3 3 2 2 1 4 4 4 8 13 15 10 5 4 6 9 13 19 17 14 14 14 15 17 16 16 16 14 13 13 14 14 19 25 27 28 29 30 31 32 33 33 33 33 32 32 32 31 30 28 27 26 26 25 24 21 19 16 15 16 18 20 20 19 18 17 15 15 14 12 10 9
6 5 3 3 5 7 6 6 6 8 9 4 2 3 1 4 3 4 4 3 4 5 7 11 13 9 6 5 7 13 18 21 19 16 18 19 19 18 16 15 15 14 13 13 13 13 15 17 20 24 27 29 30 30 31 32 33 33 33 32 32 31 30 29 29 28 27 26 24 21 19 18 17 19 21 22 21 21 20 17 14 14 14 11 10 9
6 7 5 4 4 8 7 5 5 5 5 5 4 5 4 2 1 0 1 1 4 6 6 9 10 6 7 7 9 15 18 20 19 18 20 22 21 19 17 16 13 13 13 14 13 12 13 13 16 22 25 27 29 29 31 32 32 33 33 33 33 32 31 31 30 30 29 27 25 22 21 21 20 20 22 22 22 21 19 16 14 13 14 13 11 10
4 6 7 6 4 6 9 6 6 5 4 6 6 6 5 3 2 3 3 0 2 6 5 7 10 5 5 5 9 15 21 23 20 19 18 18 20 20 18 16 13 13 14 13 13 13 13 13 17 22 25 27 28 31 33 34 34 34 33 33 34 33 34 34 33 32 31 29 27 25 23 23 22 22 22 22 21 19 17 15 13 13 14 14 12 10
6 6 9 9 4 5 9 8 7 6 5 6 6 6 6 5 5 4 4 3 4 5 2 3 7 5 4 6 9 13 17 17 14 14 12 12 16 17 14 13 13 13 14 13 13 14 14 16 20 24 26 28 30 33 35 35 35 34 34 35 36 35 36 35 35 34 33 31 29 27 26 25 24 23 22 21 19 18 16 15 14 14 15 15 13 11
7 8 7 7 6 7 8 7 7 6 4 4 4 5 6 7 6 3 4 6 5 2 0 2 3 5 5 5 5 4 7 9 11 11 9 11 14 11 9 12 13 13 14 13 14 14 15 17 21 24 25 28 31 32 34 34 36 36 36 37 38 38 38 38 38 37 35 33 31 30 29 27 24 23 22 21 19 18 18 17 16 16 16 15 13 13
5 6 6 5 7 9 9 8 8 8 5 2 3 4 6 6 8 3 2 2 3 2 3 2 3 4 2 5 7 5 1 6 11 12 13 14 15 12 11 13 13 13 14 14 14 15 15 16 21 24 27 28 29 30 33 36 39 41 40 40 40 40 39 38 38 37 35 35 34 33 31 28 25 24 22 21 20 19 18 17 16 16 16 15 14 14
5 4 7 7 9 10 9 8 9 9 9 5 5 7 3 3 3 3 2 0 3 2 4 3 5 4 2 3 5 3 2 6 11 14 14 14 14 14 13 14 15 15 15 15 15 14 14 15 20 25 28 30 32 34 37 40 42 42 41 42 42 40 39 39 39 38 37 36 35 34 32 28 26 24 22 22 21 20 19 18 17 17 16 15 14 14
5 2 7 7 10 8 5 6 8 8 8 6 5 6 5 3 2 1 3 3 2 3 3 2 3 3 4 5 4 5 8 9 10 11 12 14 15 15 14 15 15 14 13 13 13 12 12 14 20 25 28 31 34 36 38 40 39 39 39 40 40 40 41 42 41 39 38 37 37 35 32 28 26 25 23 22 21 20 19 19 19 18 17 15 14 14
3 3 5 5 7 7 4 6 9 8 5 2 2 4 3 3 5 4 3 4 4 3 2 2 2 2 6 6 6 9 9 10 9 9 12 15 16 15 14 14 14 13 12 12 12 13 13 15 22 28 31 32 35 37 38 37 36 37 39 39 38 38 38 39 38 38 38 40 39 36 32 29 27 25 24 23 21 20 20 20 19 18 16 15 14 15
3 4 5 6 3 5 4 6 10 9 5 3 4 5 2 1 3 2 1 3 4 4 4 2 3 5 6 5 8 9 8 11 13 13 13 13 14 14 14 14 14 13 13 13 13 14 15 16 22 29 32 33 35 36 35 35 36 37 37 36 37 37 36 36 37 37 39 40 39 37 35 31 29 27 25 23 21 19 19 19 19 18 17 16 16 17
4 4 5 6 4 4 6 7 8 10 10 8 7 7 6 4 4 3 3 2 2 4 5 5 4 7 6 5 7 7 8 11 13 14 12 12 14 14 13 15 15 14 14 14 14 15 14 14 20 27 30 30 30 30 32 33 33 34 34 36 37 37 37 38 38 39 39 38 38 38 36 32 30 29 26 24 21 20 20 20 20 20 19 18 17 18
5 4 5 7 6 6 9 8 6 10 12 10 8 7 7 6 6 6 5 3 1 1 2 4 3 7 6 4 6 6 8 10 11 12 12 12 14 14 14 14 14 14 15 15 14 13 12 14 21 25 27 28 29 30 31 32 33 35 37 38 37 37 39 39 38 38 38 37 37 38 36 33 32 31 28 26 24 22 21 22 22 22 22 20 18 18
4 4 5 6 6 6 8 7 5 5 6 6 7 6 7 6 6 6 5 5 5 3 3 3 3 6 6 4 3 4 6 8 9 11 13 13 11 13 14 14 13 13 13 13 13 12 12 14 17 19 21 25 28 30 32 33 35 35 35 35 36 38 40 38 36 37 37 37 37 37 37 36 34 32 30 29 27 25 23 23 23 23 23 21 18 19
5 4 5 5 5 6 7 6 5 3 3 4 4 5 7 8 7 5 3 4 4 5 6 5 4 6 6 5 1 4 7 8 10 11 12 12 10 12 13 12 12 12 12 13 13 12 12 12 13 14 18 24 27 29 32 33 34 35 35 36 37 39 39 37 36 36 37 38 37 38 39 38 36 35 33 32 29 26 25 24 24 24 24 22 20 20
6 5 6 7 8 8 7 6 6 3 3 3 3 7 9 10 11 7 4 5 4 4 5 6 5 6 7 5 1 5 7 8 9 8 8 8 9 11 11 10 11 11 12 14 15 14 12 12 13 14 18 23 27 29 31 33 35 35 35 37 38 37 37 36 36 36 37 38 38 39 40 39 38 38 35 33 31 28 27 26 24 24 24 23 21 20
4 4 8 10 10 10 8 8 7 4 5 5 6 8 10 11 13 8 5 5 6 4 4 6 6 5 6 5 4 6 8 9 9 8 9 9 9 9 10 10 11 11 13 14 14 13 12 12 13 15 18 23 27 29 31 32 34 34 34 35 37 36 35 36 36 36 37 39 39 39 39 39 40 40 37 34 32 30 29 27 24 24 24 23 22 21
4 4 9 12 14 13 12 11 7 4 6 9 9 10 10 11 12 10 7 7 7 8 6 9 6 8 8 8 9 10 9 9 9 10 12 12 10 9 9 10 11 11 12 13 14 14 13 13 14 14 16 21 24 26 28 29 30 32 33 34 35 35 36 37 37 37 38 39 38 37 40 42 43 41 37 34 33 30 29 28 25 24 24 24 24 22
4 6 8 11 14 15 14 14 11 5 5 7 8 11 13 12 13 13 11 10 11 9 9 8 9 11 10 10 12 13 13 13 13 12 10 9 9 9 9 10 11 12 13 14 15 13 12 13 13 13 14 18 22 24 26 26 28 29 30 31 33 34 36 37 37 38 39 38 37 38 42 44 44 41 38 36 33 31 30 29 26 25 25 25 25 23
4 5 7 10 13 14 13 15 15 11 9 8 7 10 13 14 16 17 13 11 13 11 9 10 13 12 10 11 15 16 13 11 8 6 6 7 9 10 10 12 13 14 15 16 14 12 13 13 13 13 13 15 20 23 24 25 27 29 31 32 33 34 35 36 37 38 39 38 38 39 41 43 42 41 39 37 34 32 31 30 27 26 27 26 26 24
6 6 5 8 8 10 11 13 14 12 13 12 11 12 11 11 12 13 10 9 9 8 5 8 10 10 8 7 9 8 6 6 6 7 8 9 10 11 11 13 14 14 14 13 12 11 10 10 10 10 10 13 19 22 24 27 28 30 31 31 33 35 36 36 37 39 39 36 35 37 40 43 44 43 42 38 34 32 31 29 28 27 28 28 27 25
5 4 2 7 5 7 9 12 13 9 8 10 12 14 11 8 7 7 6 6 7 7 6 7 6 9 8 3 3 3 6 9 10 11 10 9 10 12 13 13 13 13 12 11 11 9 9 9 10 10 11 14 19 22 24 27 27 28 30 31 32 33 33 35 38 38 35 32 34 38 41 42 41 36 30 25 25 28 30 29 27 28 29 29 28 26
4 4 3 6 6 7 7 10 9 6 4 6 9 10 9 7 7 5 3 1 4 6 7 5 7 7 4 5 5 4 7 10 11 12 11 10 11 11 11 12 11 11 11 10 9 9 9 9 8 10 13 16 19 24 27 28 27 27 28 29 31 31 31 34 36 33 29 28 29 30 30 29 25 20 17 17 23 28 30 29 29 30 31 30 29 27
3 6 5 5 6 6 6 8 8 5 6 7 6 5 6 7 10 10 4 1 1 4 5 5 6 3 5 8 10 10 10 9 9 9 7 7 9 9 8 9 9 8 8 8 8 8 8 8 8 11 15 18 21 24 24 24 25 25 25 27 30 29 29 30 29 24 22 22 24 26 29 29 26 22 22 23 25 27 29 31 31 31 32 31 30 29
3 5 4 3 4 4 4 8 8 6 7 4 5 2 5 11 15 13 7 4 4 3 2 1 4 5 6 8 10 11 8 5 4 3 4 6 7 9 8 7 7 7 8 7 8 8 8 8 9 11 16 21 23 21 19 22 25 24 23 25 26 25 25 25 22 19 21 24 27 32 38 40 38 33 27 24 23 24 27 31 32 33 33 32 31 32
4 4 2 1 2 3 4 5 7 6 3 3 5 4 4 7 11 12 9 8 8 7 3 2 3 5 4 3 4 8 7 6 6 5 4 5 4 6 9 9 8 9 9 9 10 10 11 13 15 17 21 23 22 21 22 25 24 22 22 23 24 24 23 21 21 22 24 27 31 36 41 41 38 32 24 21 21 23 27 31 33 35 35 34 34 33
3 4 2 2 1 4 5 2 3 3 2 3 3 2 2 2 2 7 6 3 4 5 3 2 4 4 4 2 3 8 9 9 7 6 5 3 2 4 5 8 10 9 9 9 10 11 14 17 19 20 19 18 19 22 24 22 22 23 23 23 23 23 22 22 24 25 28 32 35 37 36 32 29 25 19 19 22 26 29 32 34 36 36 34 34 33
1 3 4 3 1 2 5 4 2 3 1 4 5 4 3 6 6 3 6 1 4 7 6 2 7 8 7 5 2 5 9 10 7 3 5 6 2 2 1 3 6 6 6 8 8 8 11 15 17 17 16 14 16 20 20 19 20 22 22 21 21 21 20 22 25 28 32 35 34 31 30 28 27 25 23 23 27 29 31 35 39 38 35 34 33 32
7 3 3 5 3 2 5 5 3 2 2 4 7 10 8 8 8 1 5 1 7 10 8 5 7 6 7 7 4 4 8 7 4 2 6 7 2 2 3 4 3 1 2 6 9 11 14 16 15 13 13 14 16 18 20 21 22 22 22 21 20 19 20 24 29 32 32 30 29 29 29 29 27 26 26 27 32 34 35 37 35 30 29 31 32 30
7 5 4 5 4 4 5 3 1 2 1 4 8 11 11 8 4 6 5 2 7 10 7 7 9 7 6 8 8 8 8 5 2 4 7 4 3 5 6 6 5 4 4 3 3 9 14 15 13 12 14 16 18 20 21 23 24 24 24 25 23 23 26 31 34 32 29 30 32 32 30 27 25 25 26 30 36 37 34 28 20 17 21 24 25 25
4 4 3 3 4 5 5 3 1 1 2 5 9 11 10 6 7 8 4 5 5 8 5 8 11 8 9 10 9 7 5 3 2 3 6 6 8 9 8 6 6 7 8 7 7 10 12 12 11 14 17 20 21 23 24 25 25 24 25 24 18 16 22 28 29 28 30 32 32 29 26 24 22 22 26 33 37 32 25 20 20 23 26 24 22 20
2 3 3 2 3 3 4 3 3 1 2 5 10 10 6 5 5 4 3 2 4 5 5 9 9 9 11 11 8 6 3 1 1 3 7 9 8 7 7 6 6 8 8 8 8 9 9 8 9 11 13 17 20 22 24 25 24 22 19 13 8 8 14 20 19 19 22 25 27 26 26 25 21 21 26 29 27 22 19 20 23 25 24 19 16 15
1 1 2 2 1 2 4 4 3 1 4 9 10 7 5 5 4 4 3 3 4 5 7 9 8 7 9 9 8 7 6 6 8 8 8 8 6 6 7 5 6 6 5 5 5 6 7 7 5 2 2 5 10 13 15 16 14 10 10 14 15 14 20 21 17 14 15 20 25 28 27 21 16 17 19 17 15 14 14 14 15 15 15 14 14 15
1 2 1 0 1 2 4 2 2 3 7 9 5 4 4 4 4 5 6 5 4 5 6 7 7 7 7 9 9 9 9 9 8 7 8 8 7 7 7 6 6 5 3 2 2 5 5 4 4 5 6 4 5 6 7 8 7 10 15 16 15 18 22 21 19 16 16 20 24 24 22 17 12 11 9 9 8 9 11 13 15 18 20 21 22 21
1 3 5 3 1 2 4 3 3 3 6 5 5 8 7 7 7 5 7 7 5 4 4 6 7 7 7 8 9 10 9 8 8 8 7 7 7 7 6 7 8 7 5 2 2 3 3 6 8 9 10 9 7 6 6 7 10 13 14 12 13 18 21 19 17 16 19 23 22 19 19 18 14 11 10 10 10 12 17 22 25 26 26 25 23 18
2 4 6 4 2 4 5 3 2 2 4 3 7 8 8 9 7 5 7 7 5 4 4 5 7 7 7 8 9 9 8 8 8 8 7 7 7 8 7 7 9 9 8 3 2 5 6 8 11 12 14 13 11 11 10 11 12 14 15 14 15 18 20 19 18 18 19 21 20 17 16 15 14 14 13 14 16 20 23 27 28 26 24 22 18 14
2 3 5 5 5 5 3 3 4 4 4 4 7 9 9 9 7 6 7 6 4 4 4 4 5 7 8 8 9 8 7 8 9 8 7 7 7 7 7 6 7 9 9 8 2 4 8 11 12 13 15 15 15 18 19 18 19 22 23 22 23 23 23 23 25 25 23 21 18 16 16 14 13 14 13 13 16 18 21 24 23 20 21 20 17 14
2 3 5 5 4 5 5 4 0 5 6 6 6 7 8 8 8 7 6 6 6 6 5 5 7 8 8 6 6 7 8 8 8 7 6 6 5 6 6 6 6 7 8 8 5 3 8 11 12 12 14 15 18 22 25 26 29 32 33 32 32 31 30 29 29 29 25 21 17 15 14 10 7 8 8 10 13 17 19 19 18 18 19 18 15 14
1 2 4 6 5 6 7 6 4 5 7 9 7 6 5 6 8 9 7 7 8 8 8 9 8 7 7 7 6 7 8 7 6 6 5 4 4 4 4 4 6 10 10 7 4 3 8 12 14 15 16 17 21 26 29 31 33 34 35 36 35 35 34 31 29 27 23 19 18 17 13 9 5 2 4 10 15 16 14 15 17 17 16 14 14 14
1 2 2 6 7 5 3 4 5 6 5 4 4 4 4 6 9 10 10 10 9 7 7 7 7 7 8 7 7 7 8 7 6 5 4 2 2 4 5 6 8 11 10 4 3 7 11 15 18 19 19 20 24 29 31 32 32 33 33 34 34 34 33 30 28 26 22 19 20 18 14 11 11 10 12 17 19 15 13 14 15 14 14 14 15 14
1 2 3 6 7 4 3 4 6 7 6 2 2 4 4 6 10 11 10 10 9 7 6 7 7 8 8 8 8 9 8 8 8 8 8 6 5 5 6 7 9 8 5 3 8 11 13 17 20 22 22 23 26 30 32 32 32 32 31 29 27 27 28 27 25 24 21 19 19 20 19 20 22 22 22 23 20 16 16 15 13 12 13 13 13 13
Wind_Direction
149 168 211 199 193 183 189 185 180 180 165 158 177 213 192 181 198 205 191 173 166 166 189 184 167 167 173 179 182 179 182 188 188 188 189 189 190 188 189 193 194 199 203 197 193 193 195 196 194 193 194 196 197 197 197 199 200 202 203 205 207 210 211 210 211 214 216 216 214 215 218 219 216 215 217 221 230 243 246 239 239 242 236 237 241 233
146 183 216 214 192 179 193 193 169 156 159 150 157 209 219 198 204 201 183 172 165 162 188 179 166 179 180 179 182 177 183 194 192 190 193 192 194 192 190 193 196 200 198 190 190 192 194 194 193 192 193 193 195 196 197 199 200 202 204 205 207 209 210 211 212 213 214 215 215 217 220 223 224 223 224 227 236 247 249 249 250 237 215 219 216 197
196 209 218 218 192 164 179 182 157 160 173 164 146 155 205 247 217 162 181 173 168 165 186 176 175 189 186 180 183 185 190 197 194 192 193 191 193 193 194 196 196 194 188 187 191 191 192 192 190 191 192 194 196 197 198 199 200 202 204 206 207 209 211 213 215 215 216 219 222 224 227 229 229 230 231 232 233 235 235 234 228 205 185 186 184 177
202 237 218 204 172 158 175 164 149 157 183 172 154 153 199 218 157 167 207 177 163 134 142 151 139 173 180 185 199 203 202 202 200 200 198 194 196 196 196 196 193 189 187 189 192 190 189 189 189 191 194 194 195 197 198 199 200 201 204 206 208 211 214 215 217 218 220 223 224 226 230 232 232 232 231 228 221 214 206 203 203 196 185 180 177 175
222 255 199 166 166 170 182 174 148 150 222 233 190 178 184 189 182 176 156 145 115 36 103 108 50 329 189 191 213 215 214 217 210 206 207 207 206 202 197 197 194 191 188 187 189 189 188 189 190 193 194 194 195 196 198 199 201 203 206 208 210 213 216 217 218 219 220 221 220 220 222 225 225 220 218 213 202 194 181 181 188 187 183 180 176 176
237 253 155 156 188 183 184 194 166 161 194 270 230 197 189 193 191 148 131 133 133 264 179 137 124 282 234 203 212 209 211 219 213 207 214 214 211 207 200 201 201 194 191 188 188 188 188 190 191 193 195 194 196 199 201 202 204 206 208 210 211 214 217 218 218 218 218 218 218 216 215 213 210 208 212 209 200 196 190 184 182 175 174 175 174 175
221 230 172 168 192 191 197 215 190 163 159 243 238 198 192 202 187 152 147 150 173 213 202 172 176 251 251 219 214 207 212 218 215 214 218 215 208 205 201 202 201 196 193 191 188 186 186 189 190 192 195 195 198 201 202 203 205 208 211 211 212 215 217 218 218 218 218 218 218 218 219 218 216 213 211 209 206 204 194 183 180 175 170 170 172 172
182 203 214 191 181 190 205 221 190 152 144 232 226 170 184 207 186 164 163 170 184 162 157 180 157 117 224 224 205 196 209 222 224 222 219 215 210 207 204 202 198 196 193 188 188 188 186 189 190 192 195 197 200 200 200 202 205 208 212 213 214 216 217 218 219 218 218 218 218 218 219 220 221 218 210 204 198 192 185 178 178 176 170 170 174 175
185 195 214 196 181 198 209 215 177 147 163 238 211 161 183 211 192 171 175 188 179 131 162 206 159 133 247 250 187 184 203 222 227 225 219 213 209 206 204 203 200 197 193 189 188 189 188 189 192 193 194 197 199 198 199 201 204 207 211 214 216 217 218 219 219 218 218 219 219 219 217 215 216 215 207 197 186 181 179 177 176 175 173 174 175 177
227 197 196 185 194 207 214 219 166 153 193 232 183 148 128 214 192 170 180 181 143 154 197 204 185 192 262 251 169 175 206 223 227 226 220 213 209 207 205 203 201 196 193 193 192 191 191 191 191 191 192 195 197 197 199 202 203 207 210 213 216 218 219 220 219 218 218 218 220 218 213 210 206 200 194 187 182 181 180 179 179 179 178 176 174 174
262 242 183 178 196 193 206 218 167 173 203 192 116 123 58 14 39 82 121 110 119 198 220 204 192 192 233 237 184 182 205 214 217 220 218 213 209 209 207 203 200 195 192 193 194 195 195 193 190 189 190 193 194 196 199 201 203 206 209 212 215 218 219 219 218 218 219 220 220 217 213 209 200 189 184 182 183 184 183 184 184 183 181 176 173 171
252 262 235 194 185 171 191 220 186 188 203 175 121 148 130 334 13 33 13 82 159 226 241 212 194 194 226 240 208 205 212 213 211 211 209 207 207 207 206 203 198 194 192 191 193 195 192 191 190 189 191 193 192 194 197 200 203 205 208 210 214 217 218 218 218 218 221 220 217 216 215 210 200 191 188 187 188 187 187 190 188 183 182 179 176 174
230 235 259 274 218 176 176 213 205 196 179 153 144 142 161 279 350 161 241 170 198 238 246 196 174 198 240 238 216 212 218 220 214 212 209 202 201 204 203 200 197 192 190 191 193 193 190 188 190 191 193 192 191 193 196 199 202 204 207 209 211 215 215 216 217 217 218 216 214 216 214 206 200 198 197 195 193 191 194 198 195 189 185 184 184 184
230 257 251 247 260 194 178 194 210 206 166 157 166 160 169 173 146 216 232 295 243 254 258 178 163 203 273 259 222 209 218 221 213 213 213 199 197 203 200 194 191 190 191 192 192 192 192 192 192 192 192 192 192 193 196 198 200 202 205 207 210 213 214 214 215 215 215 214 215 215 210 204 201 202 201 201 200 199 201 203 202 198 191 191 198 202
195 240 231 215 226 190 191 202 192 176 167 177 169 155 171 167 163 209 209 192 220 243 279 130 154 191 213 235 226 213 224 225 215 219 212 192 200 204 195 187 188 191 191 192 193 193 194 194 193 192 193 194 194 194 196 198 199 201 203 205 208 210 211 212 212 213 213 213 212 210 206 204 204 206 206 207 209 211 211 209 207 205 202 203 211 213
194 230 244 227 218 192 200 207 171 153 199 213 138 141 191 186 171 197 196 186 187 197 208 139 194 215 209 259 285 258 235 212 201 211 193 186 201 195 182 187 190 193 193 192 195 196 195 194 194 194 195 197 197 196 196 197 198 200 202 205 208 209 209 210 210 210 211 210 208 205 203 205 206 208 209 209 213 217 216 211 207 206 206 209 211 209
181 240 255 223 225 215 204 198 181 174 195 191 131 186 214 173 154 163 221 195 118 155 238 192 224 274 271 286 313 353 13 179 181 190 188 189 189 181 184 193 193 194 193 193 196 195 193 192 193 195 197 198 199 198 198 200 200 201 202 203 206 208 208 208 208 208 208 206 204 203 203 205 207 208 208 210 212 213 212 209 206 206 207 211 213 211
160 250 263 204 217 234 207 201 216 195 174 170 193 203 190 124 124 127 166 41 82 186 253 195 198 229 192 240 304 359 137 184 184 186 189 185 180 184 191 193 195 196 193 194 196 194 192 191 193 197 198 199 199 200 201 202 202 203 203 204 205 205 205 206 207 207 206 203 202 203 204 206 208 208 209 211 210 208 208 207 204 205 208 212 215 215
163 241 284 216 203 226 195 194 240 231 199 205 207 177 151 159 210 147 165 179 154 200 258 261 227 219 195 216 251 216 195 193 189 184 182 180 181 190 193 193 197 196 193 194 194 194 193 193 196 197 200 202 202 203 204 204 204 204 205 206 206 205 205 205 205 203 202 203 204 205 206 208 208 207 207 209 209 208 209 207 204 205 208 209 213 215
166 180 278 251 203 198 174 187 225 241 234 216 154 154 154 166 176 177 166 166 177 194 219 271 296 246 225 216 208 211 195 172 171 179 185 187 188 190 190 192 195 192 193 194 193 196 195 195 198 199 201 202 202 205 206 205 205 205 206 207 207 207 207 206 203 200 199 202 204 204 206 208 207 206 206 208 209 212 213 211 210 210 207 204 209 211
187 180 237 282 260 193 198 209 208 210 203 185 188 193 188 120 144 172 169 143 150 160 172 206 258 259 250 210 196 208 185 165 174 182 186 188 189 193 192 190 192 192 194 194 194 197 197 196 199 201 204 204 204 205 206 205 206 207 207 207 206 206 206 205 203 200 200 200 200 202 204 206 206 205 206 207 211 215 217 217 216 215 208 202 205 208
187 183 215 259 272 219 238 239 200 186 183 183 197 199 182 160 133 155 225 238 123 151 171 171 218 261 257 201 197 203 176 176 184 181 181 185 187 193 196 193 192 192 194 196 198 198 195 195 199 202 204 205 205 206 206 207 208 208 208 207 207 206 205 205 203 201 201 199 198 201 203 203 204 204 205 207 210 214 218 219 219 218 213 207 208 213
160 146 198 238 249 234 243 249 219 198 190 186 199 196 173 157 140 156 201 224 177 172 134 126 198 264 262 211 203 202 180 181 182 176 179 187 190 192 196 197 194 194 197 197 199 198 193 197 201 201 202 203 205 206 206 207 207 208 208 207 205 205 206 206 203 201 201 199 198 200 201 203 202 202 204 206 208 212 217 219 220 221 219 214 214 219
169 148 178 234 268 267 263 274 272 226 181 187 220 197 167 174 168 163 175 175 182 191 133 128 226 260 275 277 229 194 168 161 170 182 187 189 191 192 194 196 195 197 200 200 201 200 195 198 200 200 202 204 205 206 205 206 208 208 209 207 206 207 207 206 203 201 199 198 198 198 199 201 201 201 204 207 209 211 216 220 220 223 223 220 220 221
201 175 157 197 242 263 274 280 284 269 169 191 228 188 178 181 157 136 117 133 190 209 160 158 221 245 275 318 347 157 154 162 180 191 192 188 187 193 195 195 194 195 198 202 206 205 197 195 196 199 204 205 205 207 206 206 208 208 207 206 206 207 207 204 202 201 199 198 196 195 196 197 198 200 204 208 210 210 213 219 220 221 223 223 224 224
189 186 163 183 211 219 224 229 235 229 192 219 221 185 185 176 161 154 123 137 205 226 157 161 211 250 285 319 294 171 165 183 198 194 194 197 193 194 194 192 193 192 196 203 207 207 199 195 199 202 204 205 207 208 206 206 208 208 208 207 207 207 205 203 201 200 198 197 196 194 194 194 196 200 204 210 212 211 212 216 218 221 224 226 227 226
151 184 181 184 203 211 207 216 220 177 167 200 206 196 194 186 176 160 125 161 188 166 173 209 197 207 268 272 226 205 189 197 203 188 194 205 197 193 195 193 193 193 197 204 208 208 202 197 202 204 205 208 209 208 208 208 208 207 207 207 207 206 204 202 200 199 198 198 196 194 192 192 197 202 204 209 213 212 211 214 217 220 224 227 227 228
128 189 194 188 203 213 207 215 216 161 179 201 196 195 200 195 182 165 166 187 161 141 217 247 187 175 225 229 213 215 206 202 206 197 200 202 189 183 190 192 194 197 201 207 211 210 204 202 204 205 208 211 211 211 212 212 211 209 208 208 206 205 203 201 200 199 199 199 196 193 192 194 198 202 203 208 213 213 211 212 216 219 222 225 228 230
146 204 200 189 208 216 213 221 222 202 213 217 201 198 195 190 186 186 193 182 155 166 219 220 177 188 216 214 209 212 203 201 205 202 198 190 177 176 182 186 193 199 204 210 213 211 205 207 208 205 208 210 209 211 212 212 213 212 211 211 208 205 204 202 200 200 200 199 196 194 193 194 197 200 202 207 212 213 211 212 215 218 221 224 228 231
168 224 196 183 212 221 215 224 229 228 238 243 234 217 201 190 189 193 195 178 170 192 207 178 179 202 213 204 207 210 202 197 193 171 159 170 178 179 180 186 196 202 205 208 211 209 207 210 210 207 208 209 211 211 210 210 212 211 211 211 209 208 206 203 202 203 202 200 198 195 193 193 194 197 201 206 212 213 212 213 216 220 224 228 232 234
201 227 191 165 204 230 216 219 227 229 235 239 242 237 219 196 193 199 194 175 179 205 193 151 176 217 238 220 209 205 174 140 138 158 176 188 185 180 182 191 200 203 205 208 207 207 210 211 211 211 211 212 214 213 211 212 212 211 212 211 210 210 207 204 204 205 204 201 197 193 192 191 193 196 200 205 210 211 212 214 217 222 227 231 234 236
210 218 174 142 178 235 219 212 217 215 224 243 249 246 229 192 185 204 189 168 185 193 150 120 167 233 252 225 150 137 147 157 173 182 188 195 188 184 189 194 198 201 201 202 200 197 203 206 208 211 213 215 216 215 215 215 214 213 213 212 213 213 210 208 208 208 206 200 196 194 191 188 189 192 195 203 212 215 215 216 219 224 228 231 233 236
181 175 169 148 178 238 222 192 189 174 186 245 249 233 214 180 157 143 97 109 173 160 143 159 208 228 214 151 143 156 170 180 191 190 190 196 192 190 193 192 193 198 195 191 190 190 195 202 205 210 214 216 215 216 218 217 216 216 214 213 216 216 213 213 212 209 204 197 193 189 181 178 181 181 184 203 221 226 222 219 221 226 229 231 232 234
184 179 196 169 175 231 221 158 141 154 198 235 254 218 178 149 129 116 90 348 175 144 162 204 239 217 148 158 175 185 188 188 193 195 187 177 176 179 190 194 191 187 182 181 185 191 194 196 202 210 215 219 220 221 221 220 221 221 216 217 221 220 217 217 214 208 199 187 180 174 169 172 180 184 189 203 221 232 227 221 224 227 229 230 232 233
231 191 207 179 159 201 185 137 144 200 221 246 304 301 122 116 114 107 87 37 19 24 121 117 303 270 208 193 182 175 176 154 123 124 115 129 158 166 170 185 184 172 172 179 188 197 200 196 199 206 213 220 223 221 218 219 221 219 215 221 226 224 220 217 209 200 190 181 175 172 174 179 184 187 192 202 222 239 235 226 226 228 230 231 232 234
200 173 162 104 131 156 150 158 184 208 241 330 346 358 64 97 106 94 58 19 6 354 9 76 343 306 278 238 156 135 133 111 81 67 89 115 147 157 159 173 179 177 180 180 185 194 196 196 199 203 210 217 218 214 215 219 217 211 213 220 223 221 217 209 198 192 186 180 178 178 180 180 180 183 192 206 224 242 242 233 230 230 230 231 233 235
177 153 121 71 113 144 135 170 191 125 55 334 341 1 343 313 129 109 89 21 347 339 317 131 92 47 27 25 119 128 122 103 77 48 43 63 180 197 180 174 174 178 181 179 186 193 194 197 201 203 208 211 210 211 216 217 210 206 210 216 215 212 205 195 190 188 184 183 183 181 179 173 168 175 190 208 224 238 241 237 236 233 230 230 232 232
24 148 146 123 105 112 107 110 107 89 116 248 271 290 303 301 285 148 115 104 337 349 339 84 102 93 85 71 81 138 119 103 100 78 5 351 306 251 290 146 162 176 179 177 185 190 190 193 195 199 201 199 204 211 212 209 205 204 207 211 209 201 189 183 186 187 187 187 180 171 168 166 168 174 179 193 216 233 238 237 237 234 230 229 230 231
18 35 111 101 68 52 94 116 140 133 194 248 288 306 319 316 301 5 89 12 332 349 354 37 61 66 91 88 62 82 97 93 88 2 325 325 312 150 110 90 84 62 184 183 183 179 179 181 181 184 188 189 198 206 204 202 201 199 205 210 203 186 174 180 189 191 187 176 162 160 166 166 170 175 176 191 217 232 237 237 237 236 234 232 230 231
11 4 37 66 63 66 83 96 127 139 245 295 308 311 314 318 356 77 102 262 322 340 353 59 58 36 56 75 65 64 80 93 56 328 309 323 49 71 78 83 76 58 50 55 121 150 158 161 158 161 177 192 200 202 200 198 195 196 204 206 197 184 182 189 193 188 173 158 156 164 166 158 163 176 185 205 225 233 235 238 243 246 246 242 235 230
356 354 32 82 75 61 74 81 54 147 252 306 315 310 312 340 53 87 153 231 312 336 357 65 75 71 67 70 73 73 85 139 180 301 328 21 50 49 54 80 97 93 87 82 90 118 137 151 164 176 190 200 201 198 197 194 191 196 204 202 193 185 188 191 187 175 163 157 156 160 159 156 165 182 198 215 228 233 236 240 243 244 245 242 233 219
360 354 1 56 70 62 88 83 20 293 238 316 321 315 334 39 80 118 178 243 340 358 29 56 68 76 74 75 83 94 101 108 69 30 24 34 44 41 43 61 76 81 95 106 109 119 138 167 192 197 201 202 198 195 194 190 191 197 196 176 135 139 172 179 172 160 153 151 153 159 163 168 182 200 211 222 234 242 244 244 243 240 231 222 211 195
121 80 358 360 51 69 74 61 47 220 278 322 331 335 15 64 141 160 109 43 13 29 54 59 55 57 71 81 86 86 80 59 46 44 41 37 32 28 25 28 46 61 82 103 122 154 172 187 204 208 192 193 188 186 188 187 187 178 133 101 98 129 153 157 152 143 141 149 160 168 172 180 206 226 228 238 255 253 238 232 232 223 207 198 198 197
157 159 152 281 346 76 86 88 171 214 283 318 5 76 55 62 121 124 94 74 44 41 57 61 50 41 56 75 75 66 61 53 44 43 43 33 20 14 9 4 14 23 21 44 118 179 177 146 110 79 76 106 144 159 174 172 137 103 96 97 110 132 144 149 153 154 158 164 169 174 180 197 239 266 249 233 237 234 231 230 223 213 207 205 202 200
208 170 138 106 19 95 123 168 208 238 286 326 70 97 87 71 69 75 90 91 66 45 58 68 61 44 40 56 63 59 53 46 40 40 39 28 12 5 358 347 348 347 334 347 108 133 112 101 109 111 106 107 114 118 128 136 121 107 105 114 131 140 144 148 151 157 169 177 180 187 198 212 238 263 254 232 232 245 244 232 216 203 197 194 192 193
151 140 113 100 85 71 68 49 12 344 320 17 71 84 86 80 66 56 73 76 54 38 54 73 76 64 49 50 56 54 48 46 46 38 28 23 14 2 353 344 343 343 337 336 111 124 117 112 117 115 105 101 106 111 117 128 129 118 114 123 138 142 141 138 135 141 157 168 175 190 204 210 222 234 235 235 242 242 229 211 198 189 184 185 190 202
129 98 84 115 134 99 67 328 341 2 347 21 68 80 81 86 90 86 84 85 64 33 21 35 65 65 56 55 59 56 45 41 43 37 26 26 19 5 2 356 342 342 347 351 6 144 135 121 116 115 111 109 111 112 113 116 115 113 113 118 127 131 128 123 119 120 128 140 153 172 183 188 204 215 215 227 236 227 208 198 193 187 184 189 197 199
169 115 108 128 124 103 132 188 17 44 21 11 46 78 83 87 91 88 91 98 85 58 30 26 41 48 44 41 52 61 51 38 36 35 23 16 13 6 6 359 340 335 347 3 20 106 119 111 112 118 118 116 115 114 114 115 115 114 114 113 116 117 117 119 119 118 123 132 138 145 149 153 178 201 200 208 210 200 193 196 200 198 195 197 201 196
218 114 123 129 106 91 119 152 149 83 48 25 28 43 56 78 84 76 68 62 56 51 45 39 37 43 43 32 30 48 51 41 37 36 24 13 8 353 338 338 336 323 319 336 21 102 126 124 129 131 127 125 124 120 119 118 118 118 117 118 119 117 114 119 127 129 130 130 126 120 112 99 92 120 201 203 197 196 201 205 204 204 202 199 198 198
49 58 110 124 115 107 130 162 157 122 87 51 38 44 52 77 85 80 73 65 56 49 48 45 39 40 43 33 26 36 39 26 17 21 22 13 346 330 324 326 322 308 296 283 149 154 151 145 142 138 133 132 130 126 124 125 124 122 120 121 123 121 120 123 129 132 136 140 141 144 150 156 160 180 211 213 207 209 213 204 197 196 194 190 189 190
87 135 136 117 113 127 164 159 134 117 107 90 61 62 64 76 82 83 84 84 82 75 67 65 54 42 35 24 20 27 24 11 7 9 8 1 349 339 319 293 281 280 272 197 162 156 149 147 148 144 141 142 139 133 131 131 132 131 128 127 128 130 134 138 139 143 156 170 173 173 179 183 186 194 207 211 211 209 201 187 178 179 182 182 182 184
Height
726 742 749 747 749 746 742 741 743 746 751 758 764 768 768 772 773 763 757 752 751 768 779 776 778 780 780 779 776 776 778 781 784 784 784 783 784 784 786 787 787 788 785 784 787 788 789 791 792 794 795 797 798 800 801 803 804 806 808 809 810 812 813 814 815 816 817 818 819 820 821 821 822 823 824 824 824 825 826 827 827 828 828 829 830 831
729 747 748 738 739 737 735 736 739 744 749 754 761 766 769 771 768 759 756 755 752 767 779 775 780 781 777 777 775 775 779 781 780 782 782 781 781 782 783 784 784 784 783 784 786 786 788 790 791 793 794 795 797 798 800 801 803 805 806 808 809 810 812 812 813 814 815 816 817 818 819 820 821 822 823 823 823 824 824 825 826 826 827 828 829 831
741 746 739 730 732 734 736 738 740 745 748 754 759 765 771 769 766 762 757 756 755 767 779 778 782 784 777 776 776 774 774 774 773 774 775 777 780 781 781 781 781 782 784 784 784 785 786 788 790 791 792 793 795 796 798 800 801 803 804 806 807 808 809 810 812 812 814 815 816 818 818 819 820 821 822 822 822 823 823 824 825 825 826 827 828 829
749 741 730 727 730 735 741 742 743 747 748 754 759 765 769 764 767 773 765 761 760 766 776 780 785 787 782 781 779 774 771 771 771 771 771 773 775 775 774 775 777 780 782 782 782 783 784 786 788 789 790 791 793 794 796 798 800 801 802 804 805 806 807 808 810 811 813 815 816 817 818 819 819 820 821 821 822 822 822 823 823 824 825 826 827 827
743 731 722 726 730 734 741 744 745 751 754 754 754 760 765 759 761 767 765 764 765 769 773 781 796 796 787 788 785 776 774 773 772 773 774 772 771 770 771 772 773 774 776 778 780 780 781 783 784 785 787 789 791 793 794 796 797 798 800 801 803 804 805 806 808 810 812 813 815 816 817 818 818 819 820 820 821 821 821 822 822 823 824 825 826 827
736 724 720 727 731 732 739 744 744 748 755 757 751 749 753 753 754 759 763 769 782 789 777 779 808 809 789 788 787 779 778 777 774 775 775 773 771 772 774 773 772 772 772 774 775 777 778 780 782 784 785 787 789 790 791 793 795 796 798 799 801 802 803 804 807 808 810 811 813 814 815 816 817 818 818 819 820 820 821 821 821 823 823 825 826 826
728 720 720 727 730 733 738 743 740 740 755 761 747 738 742 746 752 759 762 771 788 791 772 769 796 809 796 789 783 779 781 778 775 775 773 772 771 771 771 771 770 771 771 771 772 773 775 777 780 781 783 784 785 787 789 791 793 795 796 798 799 800 801 803 805 807 808 810 811 812 813 815 816 817 817 818 819 820 820 821 821 822 823 824 825 826
721 720 723 726 729 735 739 742 736 733 752 757 736 731 739 742 751 758 759 766 772 772 772 771 780 798 801 787 776 777 782 782 777 774 770 768 769 768 767 766 766 767 767 769 770 770 772 773 775 777 779 781 782 784 787 789 791 793 794 796 797 799 800 802 804 806 807 808 809 811 812 813 814 815 816 818 819 819 820 821 821 822 823 824 825 826
715 721 725 725 732 737 735 733 728 729 744 741 727 729 736 737 746 752 756 762 761 770 789 785 777 794 799 782 774 777 783 784 776 770 766 764 764 763 764 763 762 762 762 764 766 766 767 768 771 773 775 778 781 783 785 786 788 790 792 794 796 798 799 801 803 804 805 807 808 809 811 812 813 814 816 817 818 819 820 820 821 822 823 824 825 826
713 713 715 720 730 732 727 722 721 728 735 727 722 731 734 737 743 749 757 763 765 779 795 787 777 790 796 784 780 783 785 781 769 761 758 757 758 759 759 759 758 759 760 761 762 762 763 764 767 770 773 776 779 780 782 784 786 788 790 792 794 795 797 799 801 802 804 805 806 808 809 811 812 813 815 816 817 818 819 820 821 822 823 824 825 826
710 704 705 713 718 718 717 717 718 721 722 720 726 735 740 744 747 753 758 762 779 793 787 776 771 778 789 785 779 776 768 759 755 755 754 752 754 754 753 754 754 756 757 758 760 761 762 764 767 770 773 774 777 779 780 782 784 786 787 789 791 793 795 797 799 800 802 803 804 806 807 808 810 811 813 814 816 817 818 819 820 821 823 824 825 825
714 712 711 706 703 706 713 717 717 715 716 723 732 739 750 757 757 764 768 769 791 799 777 766 767 776 787 779 766 757 744 738 743 746 746 746 747 747 747 748 749 751 754 756 758 760 762 765 768 770 771 772 775 776 778 780 781 783 785 787 789 790 793 795 796 798 800 801 802 804 805 806 808 809 811 812 814 815 816 818 819 821 822 823 824 825
722 718 713 706 699 699 713 724 724 721 722 730 738 745 762 776 777 783 787 787 794 787 766 760 769 780 780 760 749 748 738 732 732 730 731 734 737 740 742 744 746 748 751 753 756 758 760 762 764 766 768 770 772 773 775 777 779 780 782 784 786 787 790 792 794 796 797 799 800 801 803 804 806 807 809 810 811 813 815 816 818 819 820 822 823 824
734 724 712 713 708 696 706 725 732 731 731 736 741 748 765 780 792 798 798 798 794 776 759 759 769 781 776 749 736 738 730 720 719 719 721 724 730 733 734 738 742 745 748 750 752 755 757 758 759 761 764 766 768 769 771 773 775 777 779 781 783 785 787 789 790 793 794 796 797 799 801 802 804 805 807 808 809 811 813 814 815 817 818 820 821 822
745 740 717 714 712 699 701 712 718 722 727 731 730 736 752 763 775 787 788 788 785 771 765 769 774 778 769 741 722 720 718 714 716 717 718 722 725 726 730 736 740 743 745 746 748 750 751 753 755 758 760 762 763 765 767 769 772 774 776 777 779 781 783 785 787 789 791 793 795 797 798 800 802 803 805 807 808 809 810 812 813 815 816 818 819 820
740 738 711 702 701 696 702 702 700 713 726 727 722 731 744 741 745 762 769 766 765 768 772 774 768 756 743 725 714 716 716 714 718 718 720 724 725 727 734 737 738 740 741 742 744 746 747 749 752 755 757 758 760 761 763 766 768 769 771 773 775 777 779 780 783 785 788 790 792 794 796 798 799 801 803 805 806 808 809 810 811 813 814 816 817 818
735 731 705 699 700 692 696 696 693 708 723 727 729 734 732 723 726 749 764 761 761 769 772 768 757 745 739 729 718 719 719 717 719 719 719 722 722 728 733 733 734 735 736 738 740 741 744 746 749 751 753 755 757 759 761 761 762 764 765 768 770 773 775 778 780 783 786 788 789 791 793 795 797 799 801 803 805 807 808 809 810 811 813 814 816 817
722 727 705 698 706 694 686 691 691 692 703 720 731 725 719 723 727 737 757 769 774 775 767 762 756 749 751 743 727 725 725 722 721 717 717 720 722 727 728 728 730 729 731 734 735 738 740 742 745 747 749 751 753 754 755 756 757 759 762 764 766 769 771 774 777 780 783 786 788 790 792 794 796 797 800 802 804 806 807 808 808 809 811 812 814 815
710 726 712 694 701 694 682 695 705 694 689 702 711 705 713 736 742 740 752 766 776 779 768 760 757 751 748 740 727 725 724 721 721 718 718 721 721 722 724 725 726 726 729 732 734 737 738 739 742 744 746 748 749 751 751 753 756 758 760 761 763 766 767 770 773 775 780 784 786 789 791 793 794 796 798 801 803 804 805 806 807 807 809 810 812 813
703 723 722 696 691 692 690 701 713 707 696 695 700 703 708 722 731 734 741 746 758 773 772 762 758 749 736 725 714 709 712 718 722 720 718 718 716 716 718 721 723 725 727 729 731 733 733 735 737 738 741 743 744 747 749 752 755 756 757 760 762 765 767 769 771 773 776 779 781 785 789 791 793 795 797 800 802 804 805 806 806 806 807 808 809 811
700 716 723 705 693 698 702 700 701 705 706 706 711 716 715 715 720 726 734 736 739 757 766 764 761 743 719 711 703 695 703 713 714 713 714 714 714 713 714 715 718 720 722 724 725 727 728 730 732 734 736 738 740 744 746 749 752 753 755 758 760 763 765 767 769 771 773 775 777 781 784 788 791 793 796 798 800 803 804 805 806 806 806 805 807 809
700 710 717 714 706 708 702 687 684 689 695 702 708 712 712 714 721 732 743 740 731 739 749 753 757 736 706 700 696 690 700 707 705 707 710 711 711 711 711 710 712 715 717 719 719 721 724 726 728 731 733 736 740 742 745 748 749 751 753 755 757 760 762 763 765 768 770 773 775 778 781 785 788 791 794 796 798 800 802 803 804 805 805 804 805 807
687 699 712 715 708 704 694 679 679 681 681 688 693 696 701 706 713 728 741 738 731 737 739 741 749 728 698 694 693 691 698 701 701 705 707 708 707 707 707 707 708 711 711 713 715 717 721 722 724 727 730 733 736 738 741 744 745 747 748 750 753 755 757 759 762 765 768 771 773 776 780 783 786 789 792 794 795 796 799 800 802 803 803 803 803 804
682 694 709 714 704 694 685 678 677 677 682 692 691 688 694 698 700 708 718 721 727 736 736 742 752 728 697 694 696 694 698 699 701 703 703 705 705 704 706 706 707 709 709 711 712 714 717 719 722 726 728 730 732 734 737 738 740 742 744 748 750 751 753 756 760 763 765 768 771 774 777 780 782 786 788 790 790 792 795 798 799 801 802 802 802 802
686 695 703 716 720 712 704 698 692 686 688 694 691 687 688 691 694 701 709 716 725 731 728 737 747 724 698 698 699 696 698 698 699 699 698 701 702 702 703 704 705 708 709 711 711 712 715 717 720 722 723 725 727 729 731 733 735 738 740 743 745 746 750 754 757 760 762 765 768 770 773 775 778 782 784 785 786 789 792 794 795 798 799 800 800 800
681 690 694 711 730 732 725 716 705 696 692 691 688 686 685 688 693 699 709 720 727 731 728 727 729 716 700 701 701 697 699 699 698 698 698 700 700 700 701 703 705 707 708 709 709 710 713 714 716 717 718 720 722 723 726 728 730 732 735 738 740 743 747 750 753 756 758 761 763 765 768 771 774 777 779 781 783 785 788 790 792 794 796 797 797 797
675 683 685 695 707 713 709 700 691 689 691 691 689 686 686 686 687 693 707 717 718 727 729 717 711 710 705 703 703 699 698 697 696 697 698 698 699 699 700 701 702 704 705 706 706 707 710 712 713 713 714 716 717 719 721 723 725 728 731 733 736 740 743 746 749 752 754 756 758 761 764 767 769 772 774 776 779 781 784 786 787 790 792 793 794 794
673 682 682 684 687 689 687 683 683 686 687 686 685 685 686 686 687 693 702 706 707 721 727 712 705 709 703 699 700 698 694 694 693 693 692 692 694 697 698 700 702 703 703 703 704 705 708 709 709 710 711 713 715 717 720 722 724 726 728 730 733 736 739 742 745 747 749 751 754 757 759 761 764 767 770 773 775 777 779 781 783 786 788 790 791 792
669 678 679 680 680 680 679 675 678 684 683 681 681 682 682 685 689 691 693 694 698 706 708 703 704 704 695 692 694 690 686 686 685 685 684 686 691 694 697 700 702 702 702 702 703 704 706 707 707 708 709 710 713 716 717 720 723 725 727 729 731 734 736 738 740 742 744 747 750 752 753 756 760 763 767 769 770 773 775 776 779 783 785 787 788 789
665 673 673 677 678 677 677 673 672 678 682 681 681 679 678 680 683 682 684 689 689 688 688 691 698 696 685 682 682 676 675 677 677 680 682 685 689 693 696 699 699 699 699 699 700 701 703 704 704 706 707 709 711 713 715 718 720 722 724 726 729 731 733 735 737 738 740 742 745 747 749 753 756 759 762 764 766 769 772 774 777 780 783 784 786 787
661 670 669 673 681 681 675 672 672 676 681 681 680 677 676 680 682 679 682 688 689 687 687 693 700 695 680 674 674 672 674 677 680 682 683 683 687 690 693 695 695 696 696 697 698 700 701 702 704 706 707 709 710 711 713 715 716 719 721 723 726 727 729 732 733 734 736 739 742 745 746 748 751 753 755 758 762 767 770 772 775 778 780 782 783 785
659 669 668 672 686 684 672 672 677 676 680 684 680 676 676 680 683 681 680 684 686 685 690 700 705 694 677 672 675 676 676 678 680 680 681 683 684 686 688 690 692 693 694 695 697 699 700 702 703 705 706 706 708 710 712 713 715 717 718 721 723 726 729 731 730 731 735 737 740 741 741 744 748 752 757 762 767 769 769 771 773 776 778 779 781 783
659 666 667 674 687 684 670 671 676 679 691 695 681 670 672 673 673 676 678 680 680 680 688 695 690 679 672 674 678 680 680 680 679 676 677 680 682 683 685 686 689 690 691 693 695 697 699 700 701 702 703 704 706 707 708 711 713 715 717 720 722 725 728 728 728 731 735 738 741 743 746 752 756 760 764 768 772 772 770 770 771 773 775 776 778 780
658 661 664 669 677 680 672 669 676 692 704 694 670 659 662 664 667 676 684 685 681 678 680 681 677 672 671 672 674 678 678 675 673 671 670 674 680 684 686 686 687 689 690 692 694 694 696 698 699 700 702 703 704 705 708 711 713 715 718 720 721 723 725 726 729 734 737 739 741 743 747 753 757 760 761 763 767 770 770 769 769 770 772 774 776 777
660 661 665 665 668 676 676 674 691 708 698 674 662 659 658 660 665 675 684 684 681 678 673 671 675 675 671 667 665 669 672 671 670 671 672 674 678 680 683 686 687 688 690 691 692 693 695 696 697 699 700 701 702 704 707 709 710 713 717 718 719 721 723 726 730 734 736 737 738 738 739 742 747 752 756 759 764 769 770 768 768 769 770 771 772 774
658 660 665 667 670 676 679 683 694 698 682 666 665 664 660 661 662 669 683 685 681 681 675 669 673 677 675 672 667 667 671 671 672 675 675 676 678 678 681 684 685 686 686 687 688 689 690 692 693 695 696 697 699 702 704 705 708 712 715 715 717 719 722 726 729 731 732 733 734 734 735 736 741 748 753 758 764 768 769 768 767 767 767 768 770 771
654 656 660 668 675 675 680 688 688 685 683 678 673 669 669 670 662 663 682 690 683 684 681 674 674 677 676 676 673 668 668 672 678 681 677 677 679 679 678 679 680 681 680 680 683 684 686 688 690 692 694 695 698 700 701 704 707 709 711 712 714 717 720 723 725 727 729 729 730 733 736 739 743 748 754 759 763 765 766 766 765 764 764 765 767 768
651 652 652 663 676 676 679 690 695 698 699 688 676 671 670 672 665 659 673 687 685 684 683 675 674 675 675 678 679 671 669 679 691 690 682 680 681 679 678 678 678 679 679 679 682 683 685 687 688 690 692 694 696 698 700 704 706 707 709 710 712 715 718 721 723 724 724 726 729 734 738 739 742 746 751 757 761 762 762 762 760 760 761 762 764 765
651 653 651 659 675 678 680 691 701 706 700 685 678 673 668 670 665 657 674 693 688 681 681 676 675 676 675 677 678 673 678 694 702 695 687 685 683 680 680 681 682 683 682 681 681 682 684 686 688 689 691 693 695 697 699 702 704 705 707 708 711 715 717 718 719 719 721 726 731 735 736 737 740 744 749 755 758 757 757 756 757 759 761 761 762 763
658 659 660 669 679 681 686 697 701 699 692 682 678 674 669 663 655 664 697 710 692 682 683 679 679 682 679 678 679 680 690 702 704 697 689 685 682 679 679 681 684 686 685 684 683 683 685 687 688 690 692 692 693 695 697 699 701 703 704 705 707 711 711 712 713 716 721 725 728 731 733 736 740 746 750 753 753 753 754 755 758 762 764 763 762 762
672 671 673 679 682 681 687 698 703 696 687 680 676 671 665 659 662 687 714 709 691 689 688 681 683 686 682 681 684 688 695 697 695 693 688 684 683 682 681 683 685 686 686 686 685 685 687 689 690 690 691 691 692 693 695 696 698 700 701 703 707 710 711 712 715 718 722 725 727 732 735 737 741 744 746 747 748 751 754 756 758 761 763 763 761 761
684 684 683 683 686 688 690 698 706 700 684 676 676 669 661 668 688 706 708 697 692 695 690 686 688 686 684 686 689 692 694 692 690 690 688 687 688 688 687 687 687 687 687 686 685 686 688 691 691 691 692 692 693 694 694 695 697 698 701 706 710 713 715 719 724 728 730 731 733 735 736 738 741 742 742 744 748 752 754 755 756 758 759 761 762 762
688 692 694 694 692 692 695 703 712 707 687 674 675 674 672 683 699 702 696 695 697 695 691 692 692 689 688 691 691 692 692 690 690 690 689 690 691 690 690 690 688 689 689 688 687 688 689 691 693 695 696 697 697 698 698 699 700 702 706 711 714 714 716 720 725 732 736 737 737 738 739 741 743 744 745 747 749 752 753 754 757 758 759 760 762 763
686 688 695 699 695 695 704 712 711 704 691 679 679 685 689 691 692 693 695 699 698 696 695 696 695 693 693 692 692 693 692 691 692 692 691 693 693 692 693 692 690 691 690 690 690 690 690 693 694 696 698 699 700 701 701 702 705 707 710 714 715 716 718 721 724 730 736 739 739 740 743 745 747 749 749 747 747 750 752 754 755 755 755 754 755 756
682 678 681 693 697 695 700 705 700 695 693 687 683 687 691 690 690 693 696 697 699 699 697 697 698 698 695 694 695 694 694 694 694 693 693 694 694 695 696 695 695 695 694 693 694 693 693 694 695 697 698 700 701 702 703 704 706 708 710 713 714 716 718 721 724 728 732 736 737 739 743 745 747 749 748 745 745 748 750 750 750 749 749 749 750 752
676 673 674 688 697 694 695 698 696 697 697 692 687 688 688 690 693 695 696 699 701 700 698 698 699 698 696 696 697 697 698 698 696 695 695 694 694 696 698 699 699 699 698 697 696 695 694 694 696 698 699 701 702 703 704 705 706 708 710 712 714 716 718 720 723 726 729 732 734 737 741 743 744 745 744 742 741 743 746 747 746 745 746 747 748 749
674 673 676 687 696 701 707 707 701 701 701 697 693 692 690 692 694 695 698 701 701 700 701 700 698 697 697 698 698 700 700 698 696 697 697 696 696 697 698 700 702 702 702 701 699 697 694 693 696 699 700 702 703 703 704 706 707 709 711 712 713 715 717 719 721 724 728 732 734 736 738 741 742 740 739 739 740 742 745 746 745 744 745 745 745 746
676 673 681 690 695 700 709 709 704 703 703 700 697 696 694 694 695 694 696 697 697 700 702 701 698 699 701 702 701 700 700 699 698 698 698 697 698 698 698 701 703 703 703 702 700 698 695 694 698 701 702 703 704 704 704 706 707 709 710 712 714 715 717 720 722 725 729 732 735 736 737 739 740 739 738 740 743 744 744 744 744 743 742 742 743 743
674 675 683 691 697 702 706 706 705 707 708 705 703 701 699 696 695 695 695 696 697 700 702 701 701 701 703 705 703 701 700 701 701 700 699 698 698 698 699 700 701 703 703 701 699 697 696 698 701 702 703 704 705 704 704 706 708 709 709 711 714 715 717 720 723 726 729 731 733 735 736 738 739 740 742 745 746 746 745 744 742 741 740 741 741 742
677 681 685 690 701 710 710 705 704 710 715 713 709 707 704 700 698 698 699 700 702 705 707 707 706 704 704 705 704 702 703 703 702 701 700 698 697 697 697 697 699 701 702 701 699 698 698 700 701 701 703 705 704 704 705 706 707 709 710 712 713 714 716 719 722 725 727 729 729 730 731 732 734 736 739 741 740 739 740 740 740 740 740 740 740 741
681 684 686 689 699 708 708 703 701 705 713 714 709 707 705 701 700 701 703 704 706 709 709 710 709 707 706 705 704 703 704 702 701 699 697 696 696 694 694 697 699 700 700 700 699 699 699 700 700 701 702 704 703 704 704 705 706 707 709 710 712 712 714 717 719 722 724 725 725 725 725 726 728 729 732 734 732 732 735 737 738 739 739 739 740 741